Time,TemperatureF,DewpointF,PressureIn,WindDirection,WindDirectionDegrees,WindSpeedMPH,WindSpeedGustMPH,Humidity,HourlyPrecipIn,Conditions,Clouds,dailyrainin,SoftwareType,DateUTC
2013-03-10 00:00:00,43.8,33.9,30.25,ESE,110,0.0,0.0,68,0.00,CLR,,0.00,WeatherDisplay:10.37,2013-03-10 05:00:00,
2013-03-10 00:01:00,43.8,33.9,30.25,ESE,110,0.0,0.0,68,0.00,CLR,,0.00,WeatherDisplay:10.37,2013-03-10 05:01:00,
2013-03-10 00:06:00,43.8,33.9,30.25,ESE,110,0.0,0.0,68,0.00,CLR,,0.00,WeatherDisplay:10.37,2013-03-10 05:06:00,
2013-03-10 00:11:00,43.8,33.9,30.24,ESE,110,0.0,0.0,68,0.00,CLR,,0.00,WeatherDisplay:10.37,2013-03-10 05:11:00,
2013-03-10 00:16:00,43.8,34.3,30.24,ESE,110,0.0,0.0,69,0.00,CLR,,0.00,WeatherDisplay:10.37,2013-03-10 05:16:00,
2013-03-10 00:21:00,43.7,33.8,30.25,ESE,110,0.0,0.0,68,0.00,CLR,,0.00,WeatherDisplay:10.37,2013-03-10 05:21:00,
2013-03-10 00:26:00,43.6,33.7,30.25,ESE,110,0.0,0.0,68,0.00,CLR,,0.00,WeatherDisplay:10.37,2013-03-10 05:26:00,
2013-03-10 00:31:00,43.2,33.7,30.25,ESE,110,0.0,0.0,69,0.00,CLR,,0.00,WeatherDisplay:10.37,2013-03-10 05:31:00,
2013-03-10 00:36:00,43.1,33.6,30.25,ESE,110,0.0,0.0,69,0.00,CLR,,0.00,WeatherDisplay:10.37,2013-03-10 05:36:00,
2013-03-10 00:41:00,43.0,33.5,30.26,ESE,110,0.0,0.0,69,0.00,CLR,,0.00,WeatherDisplay:10.37,2013-03-10 05:41:00,
2013-03-10 00:46:00,43.0,33.9,30.26,ESE,110,0.0,0.0,70,0.00,CLR,,0.00,WeatherDisplay:10.37,2013-03-10 05:46:00,
2013-03-10 00:51:00,42.9,33.8,30.26,ESE,110,0.0,0.0,70,0.00,CLR,,0.00,WeatherDisplay:10.37,2013-03-10 05:51:00,
2013-03-10 00:56:00,42.5,33.4,30.26,ESE,110,0.0,0.0,70,0.00,CLR,,0.00,WeatherDisplay:10.37,2013-03-10 05:56:00,
2013-03-10 01:01:00,42.5,33.4,30.26,ESE,110,0.0,0.0,70,0.00,CLR,,0.00,WeatherDisplay:10.37,2013-03-10 06:01:00,
2013-03-10 01:06:00,42.2,32.8,30.26,ESE,110,0.0,0.0,69,0.00,CLR,,0.00,WeatherDisplay:10.37,2013-03-10 06:06:00,
2013-03-10 01:11:00,42.1,33.0,30.26,ESE,110,0.0,0.0,70,0.00,CLR,,0.00,WeatherDisplay:10.37,2013-03-10 06:11:00,
2013-03-10 01:16:00,41.9,32.8,30.25,ESE,110,0.0,0.0,70,0.00,CLR,,0.00,WeatherDisplay:10.37,2013-03-10 06:16:00,
2013-03-10 01:21:00,41.8,33.1,30.25,ESE,110,0.0,0.0,71,0.00,CLR,,0.00,WeatherDisplay:10.37,2013-03-10 06:21:00,
2013-03-10 01:26:00,41.8,33.4,30.26,ESE,110,0.0,0.0,72,0.00,CLR,,0.00,WeatherDisplay:10.37,2013-03-10 06:26:00,
2013-03-10 01:31:00,42.5,39.2,30.26,ESE,110,0.0,0.0,88,0.00,CLR,,0.00,WeatherDisplay:10.37,2013-03-10 06:31:00,
2013-03-10 01:36:00,43.5,39.3,30.26,ESE,110,0.0,0.0,85,0.00,CLR,,0.00,WeatherDisplay:10.37,2013-03-10 06:36:00,
2013-03-10 01:41:00,43.4,36.0,30.26,ESE,110,0.0,0.0,75,0.00,CLR,,0.00,WeatherDisplay:10.37,2013-03-10 06:41:00,
2013-03-10 01:46:00,43.4,36.7,30.26,ESE,110,0.0,0.0,77,0.00,CLR,,0.00,WeatherDisplay:10.37,2013-03-10 06:46:00,
2013-03-10 01:51:00,43.2,35.1,30.26,ESE,110,0.0,0.0,73,0.00,CLR,,0.00,WeatherDisplay:10.37,2013-03-10 06:51:00,
2013-03-10 01:56:00,42.5,34.1,30.25,ESE,110,0.0,0.0,72,0.00,CLR,,0.00,WeatherDisplay:10.37,2013-03-10 06:56:00,
2013-03-10 03:01:00,41.9,33.9,30.25,ESE,110,0.0,0.0,73,0.00,CLR,,0.00,WeatherDisplay:10.37,2013-03-10 07:01:00,
2013-03-10 03:06:00,41.7,34.0,30.25,ESE,110,0.0,0.0,74,0.00,CLR,,0.00,WeatherDisplay:10.37,2013-03-10 07:06:00,
2013-03-10 03:11:00,41.3,33.6,30.25,ESE,110,0.0,0.0,74,0.00,CLR,,0.00,WeatherDisplay:10.37,2013-03-10 07:11:00,
2013-03-10 03:16:00,41.0,33.7,30.25,ESE,110,0.0,0.0,75,0.00,CLR,,0.00,WeatherDisplay:10.37,2013-03-10 07:16:00,
2013-03-10 03:21:00,40.9,33.9,30.24,ESE,110,0.0,0.0,76,0.00,CLR,,0.00,WeatherDisplay:10.37,2013-03-10 07:21:00,
2013-03-10 03:26:00,40.7,33.4,30.24,ESE,110,0.0,0.0,75,0.00,CLR,,0.00,WeatherDisplay:10.37,2013-03-10 07:26:00,
2013-03-10 03:31:00,40.6,33.3,30.24,ESE,110,0.0,0.0,75,0.00,CLR,,0.00,WeatherDisplay:10.37,2013-03-10 07:31:00,
2013-03-10 03:36:00,40.3,33.7,30.25,ESE,110,0.0,0.0,77,0.00,CLR,,0.00,WeatherDisplay:10.37,2013-03-10 07:36:00,
2013-03-10 03:41:00,40.2,33.9,30.25,ESE,110,0.0,0.0,78,0.00,CLR,,0.00,WeatherDisplay:10.37,2013-03-10 07:41:00,
2013-03-10 03:46:00,40.1,33.8,30.25,ESE,110,0.0,0.0,78,0.00,CLR,,0.00,WeatherDisplay:10.37,2013-03-10 07:46:00,
2013-03-10 03:51:00,40.0,33.7,30.24,ESE,110,0.0,0.0,78,0.00,CLR,,0.00,WeatherDisplay:10.37,2013-03-10 07:51:00,
2013-03-10 03:56:00,39.7,33.4,30.24,ESE,110,0.0,0.0,78,0.00,CLR,,0.00,WeatherDisplay:10.37,2013-03-10 07:56:00,
2013-03-10 04:01:00,39.7,33.4,30.24,ESE,110,0.0,0.0,78,0.00,CLR,,0.00,WeatherDisplay:10.37,2013-03-10 08:01:00,
2013-03-10 04:06:00,39.8,33.8,30.24,ESE,110,0.0,0.0,79,0.00,CLR,,0.00,WeatherDisplay:10.37,2013-03-10 08:06:00,
2013-03-10 04:11:00,40.8,38.7,30.24,ESE,110,0.0,0.0,92,0.00,CLR,,0.00,WeatherDisplay:10.37,2013-03-10 08:11:00,
2013-03-10 04:16:00,41.0,35.9,30.24,ESE,110,0.0,0.0,82,0.00,CLR,,0.00,WeatherDisplay:10.37,2013-03-10 08:16:00,
2013-03-10 04:21:00,40.8,35.1,30.24,ESE,110,0.0,0.0,80,0.00,CLR,,0.00,WeatherDisplay:10.37,2013-03-10 08:21:00,
2013-03-10 04:26:00,40.2,34.5,30.24,ESE,110,0.0,0.0,80,0.00,CLR,,0.00,WeatherDisplay:10.37,2013-03-10 08:26:00,
2013-03-10 04:31:00,39.8,34.4,30.24,ESE,110,0.0,0.0,81,0.00,CLR,,0.00,WeatherDisplay:10.37,2013-03-10 08:31:00,
2013-03-10 04:36:00,39.6,34.6,30.24,ESE,110,0.0,0.0,82,0.00,CLR,,0.00,WeatherDisplay:10.37,2013-03-10 08:36:00,
2013-03-10 04:41:00,39.6,34.6,30.24,ESE,110,0.0,0.0,82,0.00,CLR,,0.00,WeatherDisplay:10.37,2013-03-10 08:41:00,
2013-03-10 04:46:00,39.5,34.5,30.24,ESE,110,0.0,0.0,82,0.00,CLR,,0.00,WeatherDisplay:10.37,2013-03-10 08:46:00,
2013-03-10 04:51:00,39.6,34.9,30.24,ESE,110,0.0,0.0,83,0.00,CLR,,0.00,WeatherDisplay:10.37,2013-03-10 08:51:00,
2013-03-10 04:56:00,39.5,34.5,30.23,ESE,110,0.0,0.0,82,0.00,CLR,,0.00,WeatherDisplay:10.37,2013-03-10 08:56:00,
2013-03-10 05:01:00,39.5,34.8,30.24,ESE,110,0.0,0.0,83,0.00,CLR,,0.00,WeatherDisplay:10.37,2013-03-10 09:01:00,
2013-03-10 05:06:00,39.5,34.8,30.24,ESE,110,0.0,0.0,83,0.00,CLR,,0.00,WeatherDisplay:10.37,2013-03-10 09:06:00,
2013-03-10 05:11:00,39.7,35.6,30.24,ESE,110,0.0,0.0,85,0.00,CLR,,0.00,WeatherDisplay:10.37,2013-03-10 09:11:00,
2013-03-10 05:16:00,40.0,35.3,30.24,ESE,110,0.0,0.0,83,0.00,CLR,,0.00,WeatherDisplay:10.37,2013-03-10 09:16:00,
2013-03-10 05:21:00,40.0,35.3,30.24,ESE,110,0.0,0.0,83,0.00,CLR,,0.00,WeatherDisplay:10.37,2013-03-10 09:21:00,
2013-03-10 05:26:00,40.0,35.3,30.24,ESE,110,0.0,0.0,83,0.00,CLR,,0.00,WeatherDisplay:10.37,2013-03-10 09:26:00,
2013-03-10 05:31:00,40.1,36.0,30.24,ESE,110,0.0,0.0,85,0.00,CLR,,0.00,WeatherDisplay:10.37,2013-03-10 09:31:00,
2013-03-10 05:36:00,40.5,36.6,30.24,ESE,110,0.0,0.0,86,0.00,CLR,,0.00,WeatherDisplay:10.37,2013-03-10 09:36:00,
2013-03-10 05:41:00,40.9,37.0,30.24,ESE,110,0.0,0.0,86,0.00,CLR,,0.00,WeatherDisplay:10.37,2013-03-10 09:41:00,
2013-03-10 05:46:00,41.0,37.1,30.24,ESE,110,0.0,0.0,86,0.00,CLR,,0.00,WeatherDisplay:10.37,2013-03-10 09:46:00,
2013-03-10 05:51:00,40.9,36.4,30.24,ESE,110,0.0,0.0,84,0.00,CLR,,0.00,WeatherDisplay:10.37,2013-03-10 09:51:00,
2013-03-10 05:56:00,40.6,36.1,30.24,ESE,110,0.0,0.0,84,0.00,CLR,,0.00,WeatherDisplay:10.37,2013-03-10 09:56:00,
2013-03-10 06:01:00,40.5,36.3,30.24,ESE,110,0.0,0.0,85,0.00,CLR,,0.00,WeatherDisplay:10.37,2013-03-10 10:01:00,
2013-03-10 06:06:00,40.8,36.9,30.24,ESE,110,0.0,0.0,86,0.00,CLR,,0.00,WeatherDisplay:10.37,2013-03-10 10:06:00,
2013-03-10 06:11:00,40.9,36.7,30.23,ESE,110,0.0,0.0,85,0.00,CLR,,0.00,WeatherDisplay:10.37,2013-03-10 10:11:00,
2013-03-10 06:17:00,40.8,36.6,30.24,ESE,110,0.0,0.0,85,0.00,CLR,,0.00,WeatherDisplay:10.37,2013-03-10 10:17:00,
2013-03-10 06:22:00,41.1,37.5,30.24,ESE,110,0.0,0.0,87,0.00,CLR,,0.00,WeatherDisplay:10.37,2013-03-10 10:22:00,
2013-03-10 06:27:00,41.4,37.5,30.24,ESE,110,0.0,0.0,86,0.00,CLR,,0.00,WeatherDisplay:10.37,2013-03-10 10:27:00,
2013-03-10 06:32:00,41.5,37.6,30.24,ESE,110,0.0,0.0,86,0.00,CLR,,0.00,WeatherDisplay:10.37,2013-03-10 10:32:00,
2013-03-10 06:37:00,41.4,37.5,30.24,ESE,110,0.0,0.0,86,0.00,CLR,,0.00,WeatherDisplay:10.37,2013-03-10 10:37:00,
2013-03-10 06:42:00,41.1,37.2,30.24,ESE,110,0.0,0.0,86,0.00,CLR,,0.00,WeatherDisplay:10.37,2013-03-10 10:42:00,
2013-03-10 06:47:00,41.1,37.5,30.24,ESE,110,0.0,0.0,87,0.00,CLR,,0.00,WeatherDisplay:10.37,2013-03-10 10:47:00,
2013-03-10 06:52:00,41.1,37.5,30.24,ESE,110,0.0,0.0,87,0.00,CLR,,0.00,WeatherDisplay:10.37,2013-03-10 10:52:00,
2013-03-10 06:57:00,41.2,37.6,30.24,ESE,110,0.0,0.0,87,0.00,CLR,,0.00,WeatherDisplay:10.37,2013-03-10 10:57:00,
2013-03-10 07:02:00,41.3,38.0,30.25,ESE,110,0.0,0.0,88,0.00,CLR,,0.00,WeatherDisplay:10.37,2013-03-10 11:02:00,
2013-03-10 07:07:00,41.6,38.0,30.25,ESE,110,0.0,0.0,87,0.00,CLR,,0.00,WeatherDisplay:10.37,2013-03-10 11:07:00,
2013-03-10 07:12:00,41.7,37.8,30.26,ESE,110,0.0,0.0,86,0.00,CLR,,0.00,WeatherDisplay:10.37,2013-03-10 11:12:00,
2013-03-10 07:17:00,41.9,38.0,30.26,ESE,110,0.0,0.0,86,0.00,CLR,,0.00,WeatherDisplay:10.37,2013-03-10 11:17:00,
2013-03-10 07:22:00,42.1,37.9,30.27,ESE,110,0.0,0.0,85,0.00,CLR,,0.00,WeatherDisplay:10.37,2013-03-10 11:22:00,
2013-03-10 07:27:00,42.2,38.0,30.27,ESE,110,0.0,0.0,85,0.00,CLR,,0.00,WeatherDisplay:10.37,2013-03-10 11:27:00,
2013-03-10 07:32:00,42.3,37.8,30.27,ESE,110,0.0,0.0,84,0.00,CLR,,0.00,WeatherDisplay:10.37,2013-03-10 11:32:00,
2013-03-10 07:37:00,42.1,37.6,30.27,ESE,110,0.0,0.0,84,0.00,CLR,,0.00,WeatherDisplay:10.37,2013-03-10 11:37:00,
2013-03-10 07:42:00,42.0,37.8,30.26,ESE,110,0.0,0.0,85,0.00,CLR,,0.00,WeatherDisplay:10.37,2013-03-10 11:42:00,
2013-03-10 07:47:00,42.1,38.2,30.27,ESE,110,0.0,0.0,86,0.00,CLR,,0.00,WeatherDisplay:10.37,2013-03-10 11:47:00,
2013-03-10 07:52:00,42.2,38.6,30.27,ESE,110,0.0,0.0,87,0.00,CLR,,0.00,WeatherDisplay:10.37,2013-03-10 11:52:00,
2013-03-10 07:57:00,42.1,37.9,30.27,ESE,110,0.0,0.0,85,0.00,CLR,,0.00,WeatherDisplay:10.37,2013-03-10 11:57:00,
2013-03-10 08:02:00,42.1,38.2,30.28,ESE,110,0.0,0.0,86,0.00,CLR,,0.00,WeatherDisplay:10.37,2013-03-10 12:02:00,
2013-03-10 08:07:00,41.9,37.7,30.28,ESE,110,0.0,0.0,85,0.00,CLR,,0.00,WeatherDisplay:10.37,2013-03-10 12:07:00,
2013-03-10 08:12:00,41.7,37.8,30.28,ESE,110,0.0,0.0,86,0.00,CLR,,0.00,WeatherDisplay:10.37,2013-03-10 12:12:00,
2013-03-10 08:17:00,41.3,37.1,30.28,ESE,110,0.0,0.0,85,0.00,CLR,,0.00,WeatherDisplay:10.37,2013-03-10 12:17:00,
2013-03-10 08:22:00,41.5,38.8,30.28,ESE,110,0.0,0.0,90,0.00,CLR,,0.00,WeatherDisplay:10.37,2013-03-10 12:22:00,
2013-03-10 08:27:00,43.3,43.0,30.29,ESE,110,0.0,0.0,99,0.00,CLR,,0.00,WeatherDisplay:10.37,2013-03-10 12:27:00,
2013-03-10 08:32:00,45.0,44.7,30.29,ESE,110,0.0,0.0,99,0.00,,,0.00,WeatherDisplay:10.37,2013-03-10 12:32:00,
2013-03-10 08:37:00,45.0,43.4,30.28,ESE,110,0.0,0.0,94,0.00,CLR,,0.00,WeatherDisplay:10.37,2013-03-10 12:37:00,
2013-03-10 08:42:00,44.3,42.7,30.28,ESE,110,0.0,0.0,94,0.00,CLR,,0.00,WeatherDisplay:10.37,2013-03-10 12:42:00,
2013-03-10 08:47:00,43.8,42.5,30.28,ESE,110,0.0,0.0,95,0.00,CLR,,0.00,WeatherDisplay:10.37,2013-03-10 12:47:00,
2013-03-10 08:52:00,43.7,41.5,30.28,ESE,110,0.0,0.0,92,0.00,CLR,,0.00,WeatherDisplay:10.37,2013-03-10 12:52:00,
2013-03-10 08:57:00,43.9,42.6,30.28,ESE,110,0.0,0.0,95,0.00,CLR,,0.00,WeatherDisplay:10.37,2013-03-10 12:57:00,
2013-03-10 09:02:00,44.0,42.1,30.28,ESE,110,0.0,0.0,93,0.00,CLR,,0.00,WeatherDisplay:10.37,2013-03-10 13:02:00,
2013-03-10 09:07:00,44.0,42.4,30.28,ESE,110,0.0,0.0,94,0.00,CLR,,0.00,WeatherDisplay:10.37,2013-03-10 13:07:00,
2013-03-10 09:12:00,44.5,43.2,30.28,ESE,110,0.0,0.0,95,0.00,CLR,,0.00,WeatherDisplay:10.37,2013-03-10 13:12:00,
2013-03-10 09:17:00,44.8,42.3,30.28,ESE,110,0.0,0.0,91,0.00,CLR,,0.00,WeatherDisplay:10.37,2013-03-10 13:17:00,
2013-03-10 09:22:00,45.7,44.9,30.28,ESE,110,0.0,0.0,97,0.00,CLR,,0.00,WeatherDisplay:10.37,2013-03-10 13:22:00,
2013-03-10 09:27:00,47.6,47.3,30.28,ESE,110,0.0,0.0,99,0.00,CLR,,0.00,WeatherDisplay:10.37,2013-03-10 13:27:00,
2013-03-10 09:32:00,49.5,48.4,30.28,ESE,110,0.0,0.0,96,0.00,CLR,,0.00,WeatherDisplay:10.37,2013-03-10 13:32:00,
2013-03-10 09:37:00,51.1,48.6,30.28,ESE,110,0.0,0.0,91,0.00,CLR,,0.00,WeatherDisplay:10.37,2013-03-10 13:37:00,
2013-03-10 09:42:00,52.0,47.0,30.29,ESE,110,0.0,0.0,83,0.00,CLR,,0.00,WeatherDisplay:10.37,2013-03-10 13:42:00,
2013-03-10 09:47:00,52.2,45.5,30.29,ESE,110,0.0,0.0,78,0.00,CLR,,0.00,WeatherDisplay:10.37,2013-03-10 13:47:00,
2013-03-10 09:52:00,51.5,42.0,30.29,ESE,110,0.0,0.0,70,0.00,CLR,,0.00,WeatherDisplay:10.37,2013-03-10 13:52:00,
2013-03-10 09:57:00,50.9,40.7,30.28,ESE,110,0.0,0.0,68,0.00,CLR,,0.00,WeatherDisplay:10.37,2013-03-10 13:57:00,
2013-03-10 10:02:00,50.6,41.5,30.29,ESE,110,0.0,0.0,71,0.00,CLR,,0.00,WeatherDisplay:10.37,2013-03-10 14:02:00,
2013-03-10 10:07:00,50.3,40.5,30.29,ESE,110,0.0,0.0,69,0.00,CLR,,0.00,WeatherDisplay:10.37,2013-03-10 14:07:00,
2013-03-10 10:12:00,50.4,40.2,30.29,ESE,110,0.0,0.0,68,0.00,CLR,,0.00,WeatherDisplay:10.37,2013-03-10 14:12:00,
2013-03-10 10:17:00,50.7,40.5,30.29,ESE,110,0.0,0.0,68,0.00,CLR,,0.00,WeatherDisplay:10.37,2013-03-10 14:17:00,
2013-03-10 10:22:00,51.2,39.8,30.29,ESE,110,0.0,0.0,65,0.00,CLR,,0.00,WeatherDisplay:10.37,2013-03-10 14:22:00,
2013-03-10 10:27:00,51.7,39.1,30.28,ESE,110,0.0,0.0,62,0.00,CLR,,0.00,WeatherDisplay:10.37,2013-03-10 14:27:00,
2013-03-10 10:32:00,52.1,38.2,30.28,ESE,110,0.0,0.0,59,0.00,CLR,,0.00,WeatherDisplay:10.37,2013-03-10 14:32:00,
2013-03-10 10:37:00,52.5,38.1,30.28,ESE,110,0.0,0.0,58,0.00,CLR,,0.00,WeatherDisplay:10.37,2013-03-10 14:37:00,
2013-03-10 10:42:00,52.8,38.0,30.28,SE,130,0.0,0.0,57,0.00,CLR,,0.00,WeatherDisplay:10.37,2013-03-10 14:42:00,
2013-03-10 10:47:00,53.3,38.0,30.28,SE,130,0.0,0.0,56,0.00,CLR,,0.00,WeatherDisplay:10.37,2013-03-10 14:47:00,
2013-03-10 10:52:00,53.7,38.4,30.28,East,89,1.2,0.0,56,0.00,CLR,,0.00,WeatherDisplay:10.37,2013-03-10 14:52:00,
2013-03-10 10:57:00,54.1,38.3,30.28,East,89,0.0,0.0,55,0.00,CLR,,0.00,WeatherDisplay:10.37,2013-03-10 14:57:00,
2013-03-10 11:02:00,54.3,38.5,30.28,SE,131,3.5,3.5,55,0.00,CLR,,0.00,WeatherDisplay:10.37,2013-03-10 15:02:00,
2013-03-10 11:08:00,54.6,38.3,30.28,SE,140,1.4,1.4,54,0.00,CLR,,0.00,WeatherDisplay:10.37,2013-03-10 15:08:00,
2013-03-10 11:13:00,54.8,38.5,30.28,SE,140,0.0,0.0,54,0.00,CLR,,0.00,WeatherDisplay:10.37,2013-03-10 15:13:00,
2013-03-10 11:18:00,55.6,40.6,30.28,WSW,247,0.0,0.0,57,0.00,CLR,,0.00,WeatherDisplay:10.37,2013-03-10 15:18:00,
2013-03-10 11:23:00,56.8,39.8,30.28,SSE,160,3.5,3.5,53,0.00,CLR,,0.00,WeatherDisplay:10.37,2013-03-10 15:23:00,
2013-03-10 11:28:00,57.3,39.8,30.28,South,189,3.9,3.9,52,0.00,CLR,,0.00,WeatherDisplay:10.37,2013-03-10 15:28:00,
2013-03-10 11:33:00,57.3,38.8,30.28,ESE,123,0.0,0.0,50,0.00,CLR,,0.00,WeatherDisplay:10.37,2013-03-10 15:33:00,
2013-03-10 11:38:00,57.4,38.4,30.28,ESE,113,1.2,1.2,49,0.00,CLR,,0.00,WeatherDisplay:10.37,2013-03-10 15:38:00,
2013-03-10 11:43:00,57.7,39.2,30.28,ESE,113,0.0,0.0,50,0.00,CLR,,0.00,WeatherDisplay:10.37,2013-03-10 15:43:00,
2013-03-10 11:48:00,58.0,38.4,30.27,East,89,2.3,2.3,48,0.00,CLR,,0.00,WeatherDisplay:10.37,2013-03-10 15:48:00,
2013-03-10 11:53:00,58.3,38.7,30.26,SSE,151,3.5,3.5,48,0.00,CLR,,0.00,WeatherDisplay:10.37,2013-03-10 15:53:00,
2013-03-10 11:58:00,58.7,39.0,30.26,SE,127,2.3,0.0,48,0.00,CLR,,0.00,WeatherDisplay:10.37,2013-03-10 15:58:00,
2013-03-10 12:03:00,59.1,38.9,30.26,SE,127,0.0,0.0,47,0.00,CLR,,0.00,WeatherDisplay:10.37,2013-03-10 16:03:00,
2013-03-10 12:08:00,59.5,38.1,30.26,SE,127,0.0,0.0,45,0.00,CLR,,0.00,WeatherDisplay:10.37,2013-03-10 16:08:00,
2013-03-10 12:13:00,60.0,38.0,30.25,SE,141,3.5,3.5,44,0.00,CLR,,0.00,WeatherDisplay:10.37,2013-03-10 16:13:00,
2013-03-10 12:18:00,60.2,38.8,30.25,East,79,1.2,1.2,45,0.00,CLR,,0.00,WeatherDisplay:10.37,2013-03-10 16:18:00,
2013-03-10 12:23:00,60.5,38.5,30.25,East,92,2.3,2.3,44,0.00,CLR,,0.00,WeatherDisplay:10.37,2013-03-10 16:23:00,
2013-03-10 12:28:00,61.1,38.4,30.24,ENE,69,4.6,4.6,43,0.00,CLR,,0.00,WeatherDisplay:10.37,2013-03-10 16:28:00,
2013-03-10 12:33:00,61.5,38.2,30.25,ENE,68,3.5,3.5,42,0.00,CLR,,0.00,WeatherDisplay:10.37,2013-03-10 16:33:00,
2013-03-10 12:38:00,62.2,38.2,30.24,East,96,1.2,1.2,41,0.00,CLR,,0.00,WeatherDisplay:10.37,2013-03-10 16:38:00,
2013-03-10 12:43:00,62.9,38.2,30.24,ESE,110,0.0,0.0,40,0.00,CLR,,0.00,WeatherDisplay:10.37,2013-03-10 16:43:00,
2013-03-10 12:48:00,63.4,38.0,30.24,North,7,2.3,2.3,39,0.00,CLR,,0.00,WeatherDisplay:10.37,2013-03-10 16:48:00,
2013-03-10 12:53:00,63.3,38.6,30.24,South,172,4.6,4.6,40,0.00,CLR,,0.00,WeatherDisplay:10.37,2013-03-10 16:53:00,
2013-03-10 12:58:00,63.6,37.5,30.24,ENE,71,0.0,0.0,38,0.00,CLR,,0.00,WeatherDisplay:10.37,2013-03-10 16:58:00,
2013-03-10 13:03:00,64.0,37.9,30.23,East,92,2.3,2.3,38,0.00,CLR,,0.00,WeatherDisplay:10.37,2013-03-10 17:03:00,
2013-03-10 13:08:00,64.6,37.7,30.23,ENE,65,0.0,0.0,37,0.00,CLR,,0.00,WeatherDisplay:10.37,2013-03-10 17:08:00,
2013-03-10 13:13:00,65.1,38.2,30.23,SSE,152,4.6,4.6,37,0.00,CLR,,0.00,WeatherDisplay:10.37,2013-03-10 17:13:00,
2013-03-10 13:18:00,65.8,38.1,30.23,ESE,114,3.5,3.5,36,0.00,CLR,,0.00,WeatherDisplay:10.37,2013-03-10 17:18:00,
2013-03-10 13:23:00,66.4,37.9,30.23,NNE,30,1.2,1.2,35,0.00,CLR,,0.00,WeatherDisplay:10.37,2013-03-10 17:23:00,
2013-03-10 13:28:00,66.1,37.6,30.23,SE,130,4.6,4.6,35,0.00,CLR,,0.00,WeatherDisplay:10.37,2013-03-10 17:28:00,
2013-03-10 13:33:00,66.5,38.7,30.23,East,80,2.3,2.3,36,0.00,CLR,,0.00,WeatherDisplay:10.37,2013-03-10 17:33:00,
2013-03-10 13:38:00,67.7,40.5,30.23,SE,128,0.0,0.0,37,0.00,CLR,,0.00,WeatherDisplay:10.37,2013-03-10 17:38:00,
2013-03-10 13:43:00,68.4,39.7,30.22,SW,222,4.6,4.6,35,0.00,CLR,,0.00,WeatherDisplay:10.37,2013-03-10 17:43:00,
2013-03-10 13:48:00,69.0,39.4,30.22,SE,141,2.3,0.0,34,0.00,CLR,,0.00,WeatherDisplay:10.37,2013-03-10 17:48:00,
2013-03-10 13:53:00,69.3,39.7,30.22,SSE,161,1.2,0.0,34,0.00,CLR,,0.00,WeatherDisplay:10.37,2013-03-10 17:53:00,
2013-03-10 13:58:00,69.5,39.1,30.22,SE,134,4.6,4.6,33,0.00,CLR,,0.00,WeatherDisplay:10.37,2013-03-10 17:58:00,
2013-03-10 14:03:00,69.6,39.2,30.22,NE,35,0.0,0.0,33,0.00,CLR,,0.00,WeatherDisplay:10.37,2013-03-10 18:03:00,
2013-03-10 14:08:00,69.8,38.6,30.22,ENE,68,0.0,0.0,32,0.00,CLR,,0.00,WeatherDisplay:10.37,2013-03-10 18:08:00,
2013-03-10 14:13:00,69.2,39.6,30.21,South,175,5.8,5.8,34,0.00,CLR,,0.00,WeatherDisplay:10.37,2013-03-10 18:13:00,
2013-03-10 14:18:00,69.2,38.1,30.21,ESE,119,0.0,0.0,32,0.00,CLR,,0.00,WeatherDisplay:10.37,2013-03-10 18:18:00,
2013-03-10 14:23:00,69.5,39.1,30.20,SSE,161,1.2,0.0,33,0.00,CLR,,0.00,WeatherDisplay:10.37,2013-03-10 18:23:00,
2013-03-10 14:28:00,69.2,37.3,30.20,WNW,302,0.0,0.0,31,0.00,CLR,,0.00,WeatherDisplay:10.37,2013-03-10 18:28:00,
2013-03-10 14:33:00,69.0,37.1,30.19,ENE,72,4.4,4.4,31,0.00,CLR,,0.00,WeatherDisplay:10.37,2013-03-10 18:33:00,
2013-03-10 14:38:00,68.4,36.6,30.20,NE,56,2.3,0.0,31,0.00,CLR,,0.00,WeatherDisplay:10.37,2013-03-10 18:38:00,
2013-03-10 14:43:00,68.2,37.2,30.19,NE,56,0.0,0.0,32,0.00,CLR,,0.00,WeatherDisplay:10.37,2013-03-10 18:43:00,
2013-03-10 14:48:00,68.4,37.4,30.19,ESE,102,6.9,6.9,32,0.00,CLR,,0.00,WeatherDisplay:10.37,2013-03-10 18:48:00,
2013-03-10 14:53:00,68.8,37.7,30.19,ESE,107,3.5,3.5,32,0.00,CLR,,0.00,WeatherDisplay:10.37,2013-03-10 18:53:00,
2013-03-10 14:58:00,69.5,36.7,30.19,ENE,65,5.8,5.8,30,0.00,CLR,,0.00,WeatherDisplay:10.37,2013-03-10 18:58:00,
2013-03-10 15:03:00,70.1,38.0,30.19,SE,137,3.5,3.5,31,0.00,CLR,,0.00,WeatherDisplay:10.37,2013-03-10 19:03:00,
2013-03-10 15:08:00,70.1,37.2,30.19,SE,137,0.0,0.0,30,0.00,CLR,,0.00,WeatherDisplay:10.37,2013-03-10 19:08:00,
2013-03-10 15:13:00,69.8,36.1,30.19,NE,37,0.0,0.0,29,0.00,CLR,,0.00,WeatherDisplay:10.37,2013-03-10 19:13:00,
2013-03-10 15:18:00,69.8,36.1,30.18,ENE,65,4.6,4.6,29,0.00,CLR,,0.00,WeatherDisplay:10.37,2013-03-10 19:18:00,
2013-03-10 15:23:00,69.4,34.9,30.18,NE,37,1.2,0.0,28,0.00,CLR,,0.00,WeatherDisplay:10.37,2013-03-10 19:23:00,
2013-03-10 15:28:00,68.8,35.2,30.18,East,90,6.9,6.9,29,0.00,CLR,,0.00,WeatherDisplay:10.37,2013-03-10 19:28:00,
2013-03-10 15:33:00,68.3,35.6,30.18,ENE,65,9.2,9.2,30,0.00,CLR,,0.00,WeatherDisplay:10.37,2013-03-10 19:33:00,
2013-03-10 15:38:00,68.1,35.5,30.18,ESE,106,4.6,4.6,30,0.00,CLR,,0.00,WeatherDisplay:10.37,2013-03-10 19:38:00,
2013-03-10 15:43:00,68.1,35.5,30.18,NE,48,2.3,2.3,30,0.00,CLR,,0.00,WeatherDisplay:10.37,2013-03-10 19:43:00,
2013-03-10 15:48:00,68.3,35.6,30.18,ENE,76,2.3,2.3,30,0.00,CLR,,0.00,WeatherDisplay:10.37,2013-03-10 19:48:00,
2013-03-10 15:53:00,68.2,35.6,30.18,NE,40,0.0,0.0,30,0.00,CLR,,0.00,WeatherDisplay:10.37,2013-03-10 19:53:00,
2013-03-10 15:58:00,67.5,35.0,30.18,NNE,14,0.0,0.0,30,0.00,CLR,,0.00,WeatherDisplay:10.37,2013-03-10 19:58:00,
2013-03-10 16:03:00,67.3,35.6,30.18,NNE,28,1.2,1.2,31,0.00,CLR,,0.00,WeatherDisplay:10.37,2013-03-10 20:03:00,
2013-03-10 16:09:00,67.4,36.5,30.18,NNE,28,0.0,0.0,32,0.00,CLR,,0.00,WeatherDisplay:10.37,2013-03-10 20:09:00,
2013-03-10 16:14:00,67.7,36.0,30.18,NE,42,0.0,0.4,31,0.00,CLR,,0.00,WeatherDisplay:10.37,2013-03-10 20:14:00,
2013-03-10 16:19:00,67.9,36.9,30.18,NE,42,0.0,0.0,32,0.00,CLR,,0.00,WeatherDisplay:10.37,2013-03-10 20:19:00,
2013-03-10 16:24:00,67.8,36.8,30.18,East,79,0.0,0.0,32,0.00,CLR,,0.00,WeatherDisplay:10.37,2013-03-10 20:24:00,
2013-03-10 16:29:00,67.9,36.9,30.17,ENE,72,4.6,4.6,32,0.00,CLR,,0.00,WeatherDisplay:10.37,2013-03-10 20:29:00,
2013-03-10 16:34:00,67.8,37.6,30.17,ESE,117,3.5,3.5,33,0.00,CLR,,0.00,WeatherDisplay:10.37,2013-03-10 20:34:00,
2013-03-10 16:39:00,67.6,38.2,30.17,SE,124,4.6,4.6,34,0.00,CLR,,0.00,WeatherDisplay:10.37,2013-03-10 20:39:00,
2013-03-10 16:44:00,67.6,38.2,30.17,ESE,103,0.0,0.0,34,0.00,CLR,,0.00,WeatherDisplay:10.37,2013-03-10 20:44:00,
2013-03-10 16:49:00,67.7,38.3,30.17,ESE,103,0.0,0.0,34,0.00,CLR,,0.00,WeatherDisplay:10.37,2013-03-10 20:49:00,
2013-03-10 16:54:00,67.7,38.3,30.17,ENE,66,0.0,0.0,34,0.00,CLR,,0.00,WeatherDisplay:10.37,2013-03-10 20:54:00,
2013-03-10 16:59:00,67.4,38.0,30.17,SE,124,5.8,5.8,34,0.00,CLR,,0.00,WeatherDisplay:10.37,2013-03-10 20:59:00,
2013-03-10 17:04:00,67.3,38.0,30.17,ESE,106,4.6,4.6,34,0.00,CLR,,0.00,WeatherDisplay:10.37,2013-03-10 21:04:00,
2013-03-10 17:09:00,67.3,38.0,30.17,SE,124,3.5,3.5,34,0.00,CLR,,0.00,WeatherDisplay:10.37,2013-03-10 21:09:00,
2013-03-10 17:14:00,67.7,38.3,30.16,ESE,117,6.9,6.9,34,0.00,CLR,,0.00,WeatherDisplay:10.37,2013-03-10 21:14:00,
2013-03-10 17:19:00,68.0,37.8,30.16,East,99,6.9,6.9,33,0.00,CLR,,0.00,WeatherDisplay:10.37,2013-03-10 21:19:00,
2013-03-10 17:24:00,68.3,38.1,30.16,SSE,154,0.0,0.0,33,0.00,CLR,,0.00,WeatherDisplay:10.37,2013-03-10 21:24:00,
2013-03-10 17:29:00,68.4,38.2,30.16,East,85,2.3,2.3,33,0.00,CLR,,0.00,WeatherDisplay:10.37,2013-03-10 21:29:00,
2013-03-10 17:34:00,68.3,37.3,30.15,East,85,0.0,0.0,32,0.00,CLR,,0.00,WeatherDisplay:10.37,2013-03-10 21:34:00,
2013-03-10 17:39:00,68.0,38.6,30.16,ESE,123,4.6,4.6,34,0.00,CLR,,0.00,WeatherDisplay:10.37,2013-03-10 21:39:00,
2013-03-10 17:44:00,68.1,37.9,30.15,NNE,30,2.3,2.3,33,0.00,CLR,,0.00,WeatherDisplay:10.37,2013-03-10 21:44:00,
2013-03-10 17:49:00,67.8,39.1,30.16,ESE,119,5.0,5.0,35,0.00,CLR,,0.00,WeatherDisplay:10.37,2013-03-10 21:49:00,
2013-03-10 17:54:00,67.9,38.5,30.16,East,89,4.6,4.6,34,0.00,CLR,,0.00,WeatherDisplay:10.37,2013-03-10 21:54:00,
2013-03-10 17:59:00,67.7,38.3,30.16,ESE,107,0.0,0.0,34,0.00,CLR,,0.00,WeatherDisplay:10.37,2013-03-10 21:59:00,
2013-03-10 18:04:00,67.1,37.8,30.16,SSE,152,1.2,0.0,34,0.00,CLR,,0.00,WeatherDisplay:10.37,2013-03-10 22:04:00,
2013-03-10 18:09:00,66.7,37.4,30.16,SE,138,1.2,1.2,34,0.00,CLR,,0.00,WeatherDisplay:10.37,2013-03-10 22:09:00,
2013-03-10 18:14:00,66.2,37.0,30.16,ESE,114,0.0,0.0,34,0.00,CLR,,0.00,WeatherDisplay:10.37,2013-03-10 22:14:00,
2013-03-10 18:19:00,65.9,36.7,30.16,ESE,114,0.0,0.0,34,0.00,CLR,,0.00,WeatherDisplay:10.37,2013-03-10 22:19:00,
2013-03-10 18:24:00,65.6,36.5,30.16,ESE,114,0.0,0.0,34,0.00,CLR,,0.00,WeatherDisplay:10.37,2013-03-10 22:24:00,
2013-03-10 18:29:00,65.3,36.9,30.16,ESE,114,0.0,0.0,35,0.00,CLR,,0.00,WeatherDisplay:10.37,2013-03-10 22:29:00,
2013-03-10 18:34:00,65.3,36.9,30.16,East,82,1.2,1.2,35,0.00,CLR,,0.00,WeatherDisplay:10.37,2013-03-10 22:34:00,
2013-03-10 18:39:00,65.3,36.9,30.16,East,82,0.0,0.0,35,0.00,CLR,,0.00,WeatherDisplay:10.37,2013-03-10 22:39:00,
2013-03-10 18:44:00,65.1,36.8,30.16,East,82,0.0,0.0,35,0.00,CLR,,0.00,WeatherDisplay:10.37,2013-03-10 22:44:00,
2013-03-10 18:49:00,65.0,36.7,30.16,East,82,0.0,0.0,35,0.00,CLR,,0.00,WeatherDisplay:10.37,2013-03-10 22:49:00,
2013-03-10 18:54:00,64.7,36.4,30.16,East,82,0.0,0.0,35,0.00,CLR,,0.00,WeatherDisplay:10.37,2013-03-10 22:54:00,
2013-03-10 18:59:00,64.5,36.2,30.16,East,82,0.0,0.0,35,0.00,CLR,,0.00,WeatherDisplay:10.37,2013-03-10 22:59:00,
2013-03-10 19:04:00,64.3,36.8,30.16,East,82,0.0,0.0,36,0.00,CLR,,0.00,WeatherDisplay:10.37,2013-03-10 23:04:00,
2013-03-10 19:09:00,64.1,36.6,30.16,East,82,0.0,0.0,36,0.00,CLR,,0.00,WeatherDisplay:10.37,2013-03-10 23:09:00,
2013-03-10 19:14:00,63.8,37.0,30.16,East,82,0.0,0.0,37,0.00,CLR,,0.00,WeatherDisplay:10.37,2013-03-10 23:14:00,
2013-03-10 19:19:00,63.5,36.7,30.16,East,82,0.0,0.0,37,0.00,CLR,,0.00,WeatherDisplay:10.37,2013-03-10 23:19:00,
2013-03-10 19:24:00,63.2,37.8,30.16,East,82,0.0,0.0,39,0.00,CLR,,0.00,WeatherDisplay:10.37,2013-03-10 23:24:00,
2013-03-10 19:29:00,62.7,37.4,30.16,East,82,0.0,0.0,39,0.00,CLR,,0.00,WeatherDisplay:10.37,2013-03-10 23:29:00,
2013-03-10 19:34:00,62.4,37.7,30.16,East,82,0.0,0.0,40,0.00,CLR,,0.00,WeatherDisplay:10.37,2013-03-10 23:34:00,
2013-03-10 19:39:00,62.1,38.1,30.16,East,82,0.0,0.0,41,0.00,CLR,,0.00,WeatherDisplay:10.37,2013-03-10 23:39:00,
2013-03-10 19:44:00,61.8,38.4,30.16,East,82,0.0,0.0,42,0.00,CLR,,0.00,WeatherDisplay:10.37,2013-03-10 23:44:00,
2013-03-10 19:49:00,61.4,38.7,30.17,East,82,0.0,0.0,43,0.00,CLR,,0.00,WeatherDisplay:10.37,2013-03-10 23:49:00,
2013-03-10 19:54:00,61.3,38.6,30.17,East,82,0.0,0.0,43,0.00,CLR,,0.00,WeatherDisplay:10.37,2013-03-10 23:54:00,
2013-03-10 19:59:00,61.1,38.4,30.17,East,82,0.0,0.0,43,0.00,CLR,,0.00,WeatherDisplay:10.37,2013-03-10 23:59:00,
2013-03-10 20:04:00,60.6,39.1,30.17,East,82,0.0,0.0,45,0.00,CLR,,0.00,WeatherDisplay:10.37,2013-03-11 00:04:00,
2013-03-10 20:09:00,60.1,39.2,30.17,East,82,0.0,0.0,46,0.00,CLR,,0.00,WeatherDisplay:10.37,2013-03-11 00:09:00,
2013-03-10 20:14:00,59.4,38.6,30.18,East,82,0.0,0.0,46,0.00,CLR,,0.00,WeatherDisplay:10.37,2013-03-11 00:14:00,
2013-03-10 20:19:00,59.0,38.8,30.17,East,82,0.0,0.0,47,0.00,CLR,,0.00,WeatherDisplay:10.37,2013-03-11 00:19:00,
2013-03-10 20:24:00,58.7,39.6,30.17,East,82,0.0,0.0,49,0.00,CLR,,0.00,WeatherDisplay:10.37,2013-03-11 00:24:00,
2013-03-10 20:29:00,58.3,38.7,30.17,East,82,0.0,0.0,48,0.00,CLR,,0.00,WeatherDisplay:10.37,2013-03-11 00:29:00,
2013-03-10 20:34:00,58.1,40.6,30.17,East,82,0.0,0.0,52,0.00,CLR,,0.00,WeatherDisplay:10.37,2013-03-11 00:34:00,
2013-03-10 20:39:00,59.0,42.4,30.17,East,82,0.0,0.0,54,0.00,CLR,,0.00,WeatherDisplay:10.37,2013-03-11 00:39:00,
2013-03-10 20:44:00,58.7,40.1,30.17,East,82,0.0,0.0,50,0.00,CLR,,0.00,WeatherDisplay:10.37,2013-03-11 00:44:00,
2013-03-10 20:50:00,58.3,40.2,30.17,East,82,0.0,0.0,51,0.00,CLR,,0.00,WeatherDisplay:10.37,2013-03-11 00:50:00,
2013-03-10 20:55:00,57.8,40.3,30.17,East,82,0.0,0.0,52,0.00,CLR,,0.00,WeatherDisplay:10.37,2013-03-11 00:55:00,
2013-03-10 21:00:00,57.1,39.6,30.17,East,82,0.0,0.0,52,0.00,CLR,,0.00,WeatherDisplay:10.37,2013-03-11 01:00:00,
2013-03-10 21:05:00,56.7,39.7,30.16,East,82,0.0,0.0,53,0.00,CLR,,0.00,WeatherDisplay:10.37,2013-03-11 01:05:00,
2013-03-10 21:10:00,56.0,39.6,30.16,East,82,0.0,0.0,54,0.00,CLR,,0.00,WeatherDisplay:10.37,2013-03-11 01:10:00,
2013-03-10 21:15:00,55.7,39.8,30.17,East,82,0.0,0.0,55,0.00,CLR,,0.00,WeatherDisplay:10.37,2013-03-11 01:15:00,
2013-03-10 21:20:00,55.5,39.6,30.17,East,82,0.0,0.0,55,0.00,CLR,,0.00,WeatherDisplay:10.37,2013-03-11 01:20:00,
2013-03-10 21:25:00,55.3,39.4,30.17,East,82,0.0,0.0,55,0.00,CLR,,0.00,WeatherDisplay:10.37,2013-03-11 01:25:00,
2013-03-10 21:30:00,55.0,39.6,30.17,East,82,0.0,0.0,56,0.00,CLR,,0.00,WeatherDisplay:10.37,2013-03-11 01:30:00,
2013-03-10 21:35:00,54.8,39.4,30.17,East,82,0.0,0.0,56,0.00,CLR,,0.00,WeatherDisplay:10.37,2013-03-11 01:35:00,
2013-03-10 21:40:00,55.1,42.7,30.17,East,82,0.0,0.0,63,0.00,CLR,,0.00,WeatherDisplay:10.37,2013-03-11 01:40:00,
2013-03-10 21:45:00,56.1,41.1,30.18,East,82,0.0,0.0,57,0.00,CLR,,0.00,WeatherDisplay:10.37,2013-03-11 01:45:00,
2013-03-10 21:50:00,55.5,40.0,30.17,East,82,0.0,0.0,56,0.00,CLR,,0.00,WeatherDisplay:10.37,2013-03-11 01:50:00,
2013-03-10 21:55:00,55.1,40.1,30.18,East,82,0.0,0.0,57,0.00,CLR,,0.00,WeatherDisplay:10.37,2013-03-11 01:55:00,
2013-03-10 22:00:00,54.7,39.8,30.18,East,82,0.0,0.0,57,0.00,CLR,,0.00,WeatherDisplay:10.37,2013-03-11 02:00:00,
2013-03-10 22:05:00,54.4,39.9,30.18,East,82,0.0,0.0,58,0.00,CLR,,0.00,WeatherDisplay:10.37,2013-03-11 02:05:00,
2013-03-10 22:10:00,54.2,39.7,30.18,East,82,0.0,0.0,58,0.00,CLR,,0.00,WeatherDisplay:10.37,2013-03-11 02:10:00,
2013-03-10 22:15:00,53.8,39.4,30.18,East,82,0.0,0.0,58,0.00,CLR,,0.00,WeatherDisplay:10.37,2013-03-11 02:15:00,
2013-03-10 22:20:00,53.5,39.5,30.18,East,82,0.0,0.0,59,0.00,CLR,,0.00,WeatherDisplay:10.37,2013-03-11 02:20:00,
2013-03-10 22:25:00,53.3,39.3,30.17,East,82,0.0,0.0,59,0.00,CLR,,0.00,WeatherDisplay:10.37,2013-03-11 02:25:00,
2013-03-10 22:30:00,53.0,39.5,30.18,East,82,0.0,0.0,60,0.00,CLR,,0.00,WeatherDisplay:10.37,2013-03-11 02:30:00,
2013-03-10 22:35:00,52.8,39.3,30.18,East,82,0.0,0.0,60,0.00,CLR,,0.00,WeatherDisplay:10.37,2013-03-11 02:35:00,
2013-03-10 22:40:00,52.6,39.5,30.18,East,82,0.0,0.0,61,0.00,CLR,,0.00,WeatherDisplay:10.37,2013-03-11 02:40:00,
2013-03-10 22:45:00,52.3,39.2,30.18,East,82,0.0,0.0,61,0.00,CLR,,0.00,WeatherDisplay:10.37,2013-03-11 02:45:00,
2013-03-10 22:50:00,52.0,39.0,30.18,East,82,0.0,0.0,61,0.00,CLR,,0.00,WeatherDisplay:10.37,2013-03-11 02:50:00,
2013-03-10 22:55:00,51.8,39.2,30.18,East,82,0.0,0.0,62,0.00,CLR,,0.00,WeatherDisplay:10.37,2013-03-11 02:55:00,
2013-03-10 23:00:00,51.5,38.9,30.18,East,82,0.0,0.0,62,0.00,CLR,,0.00,WeatherDisplay:10.37,2013-03-11 03:00:00,
2013-03-10 23:05:00,51.3,38.7,30.17,East,82,0.0,0.0,62,0.00,CLR,,0.00,WeatherDisplay:10.37,2013-03-11 03:05:00,
2013-03-10 23:10:00,51.2,39.0,30.17,East,82,0.0,0.0,63,0.00,CLR,,0.00,WeatherDisplay:10.37,2013-03-11 03:10:00,
2013-03-10 23:15:00,51.0,38.8,30.18,East,82,0.0,0.0,63,0.00,CLR,,0.00,WeatherDisplay:10.37,2013-03-11 03:15:00,
2013-03-10 23:20:00,51.0,39.2,30.18,East,82,0.0,0.0,64,0.00,CLR,,0.00,WeatherDisplay:10.37,2013-03-11 03:20:00,
2013-03-10 23:25:00,51.2,38.6,30.18,East,82,0.0,0.0,62,0.00,CLR,,0.00,WeatherDisplay:10.37,2013-03-11 03:25:00,
2013-03-10 23:30:00,51.4,38.8,30.17,East,82,0.0,0.0,62,0.00,CLR,,0.00,WeatherDisplay:10.37,2013-03-11 03:30:00,
2013-03-10 23:35:00,51.3,39.1,30.17,East,82,0.0,0.0,63,0.00,CLR,,0.00,WeatherDisplay:10.37,2013-03-11 03:35:00,
2013-03-10 23:40:00,51.3,38.7,30.17,East,82,0.0,0.0,62,0.00,CLR,,0.00,WeatherDisplay:10.37,2013-03-11 03:40:00,
2013-03-10 23:45:00,51.4,38.8,30.17,East,82,0.0,0.0,62,0.00,CLR,,0.00,WeatherDisplay:10.37,2013-03-11 03:45:00,
2013-03-10 23:50:00,51.7,39.1,30.18,East,82,0.0,0.0,62,0.00,CLR,,0.00,WeatherDisplay:10.37,2013-03-11 03:50:00,
2013-03-10 23:55:00,51.7,39.1,30.17,East,82,0.0,0.0,62,0.00,CLR,,0.00,WeatherDisplay:10.37,2013-03-11 03:55:00,